www.pogodaiklimat.ru

Погода и климат >> Архив погоды >> Канада >> Dubawnt Lake


ПОГОДА в Dubawnt Lake

  • Прогноз погоды в Dubawnt Lake
  • Монитор погоды в Dubawnt Lake
  • Климат города

АРХИВ ПОГОДЫ в Dubawnt Lake

Время (UTC), дата Ветер
(напр.,м/с)
 
Видим.   Явления Облачность Т
(С)
Тd
(С)
f
(%)
Тe
(С)
Тes
(С)
Комфортность P
(гПа)
Po
(гПа)
Тmin
(С)
Tmax
(С)
R
(мм)
R24
(мм)
S
(см)
03 14.10 СЗ 3 16 км слаб. снег 10/10 300 м
[]
-7.4 -9.8 83 -13 -13 1026.5 962.1
06 14.10 С 2 16 км 10/10 300 м
[]
-7.6 -9.1 89 -12 -12 1026.2 961.8 -7.6 -3.8 71
09 14.10 СВ 2 16 км слаб. снег 10/10 300 м
[]
-7.1 -8.9 87 -11 -11 1025.7 961.3
12 14.10 Ю 2 16 км 10/10 300 м
[]
-7.0 -8.7 88 -11 -11 1025.1 960.7 -7.6 -3.8
15 14.10 ЮЗ 2 16 км 10/10 300 м
[]
-7.0 -9.4 83 -11 -11 1024.1 959.7
18 14.10 Ю 4 16 км ясно -3.3 -7.9 70 -9 -8 1021.7 957.7 -7.6 -3.3
21 14.10 Ю 4 16 км ясно -1.2 -6.6 67 -7 -6 1018.3 954.7
00 15.10 Ю 4 16 км 10/0
[]
-0.4 -5.8 67 -5 -5 1014.6 951.3 -7.6 -0.2
03 15.10 Ю 7 16 км слаб. снег 10/10 1000 м
[]
-0.9 -2.6 88 -8 -8 1010.0 946.9
06 15.10 ЮЗ 8 6000 м осадки 10/10 1000 м
[]
+1.3 -2.5 76 -6 -6 1004.2 941.8 -7.6 +1.8 61
09 15.10 З 6 16 км 10/10 600 м
[]
+3.5 -0.5 75 -2 -2 1001.4 939.5
12 15.10 СЗ 8 16 км 10/10 300 м
[]
+2.9 +1.6 91 -4 -4 1002.1 940.1 -0.9 +1.8
15 15.10 СЗ 9 16 км 10/10 300 м
[]
+1.5 -0.1 89 -6 -6 1004.4 942.2
18 15.10 СЗ 7 700 м снег 10/10 100 м
[]
+0.3 -0.5 94 -7 -7 1007.2 944.9 -3.3 +3.7
21 15.10 СЗ 8 16 км {осадки} 10/10 600 м
[]
+1.0 -2.9 75 -6 -6 1010.3 948.0
00 16.10 СЗ 6 16 км 10/10 600 м
[]
+0.2 -2.6 81 -6 -6 1013.8 951.2 +0.2 +3.0 0.3
03 16.10 СЗ 5 16 км 10/10 600 м
[]
+0.3 -3.3 77 -6 -6 1015.9 953.0
06 16.10 СЗ 5 16 км 10/10 300 м
[]
+0.4 -1.5 87 -5 -5 1016.7 953.7 -0.5 +3.7 161
09 16.10 СЗ 4 16 км 10/10 300 м
[]
-0.3 -2.7 84 -6 -6 1018.4 955.3
12 16.10 С 6 9000 м слаб. снег 10/10 200 м
[]
-3.1 -4.2 92 -10 -10 1020.7 957.3 -3.1 +3.7
15 16.10 С 4 16 км ясно -7.0 -9.9 80 -14 -14 1023.8 959.9
18 16.10 СВ 3 16 км ясно -5.6 -11.0 66 -10 -9 1025.3 961.4 -8.4 +0.4
21 16.10 Ю 1 16 км ясно -3.9 -13.8 46 -4 -3 1025.2 961.4
00 17.10 ЮЗ 1 16 км ясно -6.6 -9.8 78 -7 -7 1025.2 961.1 -8.4 -2.8
03 17.10 В 1 16 км 9/0
[]
-9.3 -10.9 88 -10 -10 1025.3 960.7
06 17.10 ЮВ 2 16 км 9/9 600 м
[]
-7.4 -9.8 83 -11 -11 1023.8 959.5 -10.1 +0.4 10
09 17.10 Ю 3 16 км 3/0
[]
-4.7 -7.6 80 -10 -10 1021.4 957.6
12 17.10 Ю 5 16 км 10/10 300 м
[]
-2.8 -6.1 78 -9 -9 1018.1 954.4 -10.1 +0.4
15 17.10 ЮВ 4 16 км 3/3 300 м
[]
-2.1 -4.9 81 -8 -8 1014.6 951.0
18 17.10 Ю 6 16 км ясно +2.2 -1.8 75 -3 -3 1011.9 948.9 -10.1 +2.2
21 17.10 ЮЗ 4 16 км ясно +6.5 -0.2 62 +3 +4 1009.3 946.9
00 18.10 ЮЗ 3 16 км ясно +4.4 -0.6 70 +1 +1 1007.7 945.3 -8.0 +7.6
03 18.10 ЮЗ 3 16 км ясно +5.4 -1.1 63 +2 +2 1006.3 944.1
06 18.10 СЗ 1 16 км 9/0
[]
+4.7 -1.0 67 +4 +4 1004.9 943.0 -8.0 +7.6 14
09 18.10 З 3 16 км 10/0
[]
+6.4 -0.9 60 +4 +4 1004.1 942.6
12 18.10 З 2 16 км 10/0
[]
+5.1 -1.2 64 +3 +3 1004.8 943.1 +2.9 +7.6
15 18.10 З 3 16 км 10/0
[]
+4.9 -1.2 65 +2 +2 1005.1 943.4
18 18.10 З 5 16 км ясно +9.9 -0.8 47 +7 +8 1005.1 943.7 +2.2 +9.9
21 18.10 З 7 16 км 9/0
[]
+10.4 +0.7 51 +7 +7 1005.7 944.3
00 19.10 СЗ 4 16 км слаб. дождь 10/10 1000 м
[]
+6.7 +2.5 75 +3 +3 1007.8 946.0 +2.9 +11.0
03 19.10 СЗ 5 16 км 10/10 300 м
[]
+3.4 +1.5 87 -2 -2 1010.5 948.4
06 19.10 СЗ 8 16 км 9/9 300 м
[]
+1.8 -0.8 83 -5 -5 1013.1 951.0 +1.7 +11.0 51
09 19.10 СЗ 6 16 км 10/10 600 м
[]
-0.1 -3.7 77 -7 -7 1015.2 952.9
12 19.10 С 7 16 км 10/10 300 м
[]
-3.3 -6.9 76 -11 -11 1018.5 955.6 -3.3 +11.0
15 19.10 СЗ 6 16 км 10/10 600 м
[]
-4.5 -8.1 76 -12 -12 1021.6 958.2
18 19.10 СЗ 7 16 км 10/10 600 м
[]
-4.2 -8.9 70 -12 -12 1024.7 961.0 -5.2 +1.7
21 19.10 СЗ 7 16 км 9/9 600 м
[]
-2.4 -8.1 65 -10 -10 1026.7 962.9
00 20.10 СЗ 5 16 км 10/10 600 м
[]
-3.4 -7.9 71 -10 -10 1028.4 964.2 -5.2 -2.0
03 20.10 С 4 16 км 10/10 600 м
[]
-4.6 -8.3 75 -11 -11 1028.6 964.3
06 20.10 С 2 16 км 10/10 300 м
[]
-5.5 -8.6 79 -9 -9 1028.2 963.9 -5.5 +1.7 171
09 20.10 ЮВ 2 16 км 9/9 300 м
[]
-6.1 -8.2 85 -10 -10 1026.8 962.6
12 20.10 Ю 6 16 км 10/0
[]
-4.8 -7.4 82 -13 -13 1023.3 959.4 -6.2 +1.7
15 20.10 Ю 5 16 км 10/0
[]
-3.4 -7.6 73 -10 -10 1018.6 955.0
18 20.10 Ю 8 16 км 10/10 1500 м
[]
-0.9 -7.3 62 -8 -8 1012.3 949.2 -6.2 -0.9
21 20.10 ЮЗ 9 16 км 5/0
[]
+1.6 -2.9 72 -6 -6 1009.4 946.6
00 21.10 ЮЗ 4 16 км 5/0
[]
+1.7 -1.8 78 -3 -3 1007.6 945.0 -6.2 +2.7

 

Местоположение метеостанции Dubawnt Lake (Канада): широта 63.23 долгота -101.70 высота над уровнем моря 237 м.

В архиве по умолчанию представлена погода в Dubawnt Lake за последнюю неделю. Архивные данные за месяц целиком и за предыдущие месяцы, начиная с января 2011 года, Вы можете получить, выбрав интересующий диапазон дат из раскрывающегося списка и нажав кнопку "Ввод!".


*Определитесь, кто Вы:
робот инопланетянин человек

Внимание! Время в таблицах - всемирное. Для получения местного времени необходимо прибавить поправку, которая в Dubawnt Lake равна -6 ч.

Смотрите также архив погоды в соседних городах и на ближайших метеорологических станциях:

Погода в Hanbury River ARS (Канада) (176 км)
Погода в Robertson Lake (Канада) (211 км)
Погода в Baker Lake Airport (Канада) (302 км)
Погода в Baker Lake Climate (Канада) (305 км)
Погода в Fort Reliance (aut) (Канада) (379 км)
Погода в Porter Lake (Канада) (387 км)
Погода в Back River MAPS (Канада) (402 км)
Погода в Lustel Ke A (Канада) (461 км)
Погода в Arviat Climate (Канада) (462 км)
Погода в Arviat (Канада) (462 км)

Пояснения к столбцам:

Ветер - указаны скорость ветра в м/с - средняя за 10 мин, порывы в срок и между сроками (в фигурных скобках) и направление, откуда дует ветер: С - северный, СВ - северо-восточный, В - восточный, ЮВ - юго-восточный, Ю - южный, ЮЗ - юго-западный, З - западный, СЗ - северо-западный.
Видимость - горизонтальная дальность видимости в метрах или километрах. При видимости от 1 до 10 км при отсутствии осадков обычно наблюдается дымка, при ухудшении видимости до 1 км и менее - туман. В сухую погоду видимость может ухудшаться дымом, пылью или мглою.
Явления - указаны атмосферные явления, наблюдавшиеся в срок или в последний час перед сроком; фигурными скобками обозначены явления, наблюдавшиеся между сроками (за 1-3 часа до срока); квадратными скобками обозначены град или гололедные отложения с указанием их диаметра в мм.
Облачность - указаны через наклонную черту общая и нижняя облачность в баллах и высота нижней границы облаков в метрах; квадратными скобками обозначены формы облаков: Ci - перистые, Cs - перисто-слоистые, Cc - перисто-кучевые, Ac - высококучевые, As - высокослоистые, Sc - слоисто-кучевые, Ns - слоисто-дождевые, Cu - кучевые, Cb - кучево-дождевые. Подробнее классификацию облаков см. в Атласе облаков (PDF).
T - Температура воздуха - температура, измеренная на высоте 2 м над землей.
Td - Температура точки росы - температура, при понижении до которой содержащийся в воздухе водяной пар достигнет насыщения.
f - Относительная влажность воздуха - влажноcть воздуха, измеренная на высоте 2 м над землей.
Te - Эффективная температура - температура, которую ощущает одетый по сезону человек в тени. Характеристика душности погоды. При расчете учитывается влияние влажности воздуха и скорости ветра на теплоощущения человека.
Tes - Эффективная температура на солнце - температура, которую ощущает человек, с поправкой на солнечный нагрев. Характеристика знойности погоды. Зависит от высоты солнца над горизонтом, облачности и скорости ветра. Ночью, в пасмурную погоду, а также при ветре 12 м/с и более поправка равна нулю.
P - Атмосферное давление - приведенное к уровню моря атмосферное давление.
Po - Атмосферное давление - измеренное на уровне метеостанции атмосферное давление.
Tmin - Минимальная температура - минимум температуры воздуха на высоте 2 м над землей.
Tmax - Максимальная температура - максимум температуры воздуха на высоте 2 м над землей.
R - Количество осадков - Количество выпавших осадков за период времени, мм. При наведении курсора мыши на число - период времени, за который выпало указанное количество осадков.
R24 - Количество осадков - Количество выпавших осадков за 24 часа, мм.
S - Снежный покров - Высота снежного покрова, см. При наведении курсора мыши на число - состояние снежного покрова и степень покрытия местности в баллах.